January 30, 2015
Temp
 
57.3 °F
 
Dew Pt.
 
48.7 °F
 
Humidity
 
73%
 
Pressure
 
1011.0 hPa 
  steady
Wind
 
0.0 mph 
    W
Rain
 
0.00 in 
  0.00 in/hr
UV index
 
0.0  
 
Solar rad.
 
0 W/m²
 
Tonight

Scattered Showers. Chance for Measurable Precipitation 30%
Scattered
Showers
Saturday

Mostly Sunny
Mostly
Sunny
Lo 54 °F Hi 71 °F
Statistics - 1/30/2015
Max Temp 67.6 °F  2:45 pm
Min Temp 55.9 °F  7:30 am
Max Dew Pt 52.6 °F  8:45 am
Min Dew Pt 48.5 °F  9:05 pm
Max Pressure 1015.8 hPa  12:00 am
Min Pressure 1009.9 hPa  2:30 pm
Max Wind 8 mph  3:05 pm
Max UV 1.3   1:00 pm
Max Solar 445 W/m²  1:10 pm
Max Rainfall Rate —   —
Total Precipitation —   
Current Temp 57.3 °F  9:25 pm
Temp 24hr ago 61.8 °F  9:25 pm
Difference -4.5 °F  
Temp Rate -0.9 °F/hr  
Pressure Rate -0.1 hPa/hr  
time temp dew pt pressure uv solar wind wind speed rainfall rate
00:00 60.3 °F 49.3 °F 1015.8 hPa  Calm    
00:05 60.2 °F 49.6 °F 1015.7 hPa  Calm    
00:10 60.1 °F 49.5 °F 1015.6 hPa  Calm    
00:15 60.0 °F 49.8 °F 1015.5 hPa  Calm    
00:20 59.9 °F 49.7 °F 1015.4 hPa  Calm    
00:25 59.7 °F 49.9 °F 1015.3 hPa  Calm    
00:30 59.6 °F 49.8 °F 1015.2 hPa  Calm    
00:35 59.4 °F 49.2 °F 1015.2 hPa  Calm    
00:40 59.3 °F 49.5 °F 1015.1 hPa  Calm    
00:45 59.1 °F 48.9 °F 1015.1 hPa  Calm    
00:50 59.0 °F 49.2 °F 1015.0 hPa  Calm    
00:55 59.0 °F 49.2 °F 1014.9 hPa  Calm    
01:00 59.0 °F 49.2 °F 1014.8 hPa  Calm    
01:05 59.0 °F 49.2 °F 1014.8 hPa  Calm    
01:10 59.0 °F 49.2 °F 1014.7 hPa  Calm    
01:15 59.0 °F 49.6 °F 1014.7 hPa  Calm    
01:20 59.0 °F 49.6 °F 1014.6 hPa  Calm    
01:25 58.8 °F 49.4 °F 1014.5 hPa  Calm    
01:30 58.6 °F 49.2 °F 1014.5 hPa  Calm    
01:35 58.5 °F 49.1 °F 1014.5 hPa  Calm    
01:40 58.5 °F 49.5 °F 1014.4 hPa  Calm    
01:45 58.5 °F 49.9 °F 1014.3 hPa  Calm    
01:50 58.4 °F 49.8 °F 1014.3 hPa  Calm    
01:55 58.4 °F 49.8 °F 1014.3 hPa  Calm    
02:00 58.3 °F 50.0 °F 1014.2 hPa  Calm    
02:05 58.3 °F 50.0 °F 1014.1 hPa  Calm    
02:10 58.2 °F 50.3 °F 1014.1 hPa  Calm    
02:15 58.1 °F 50.2 °F 1014.0 hPa  Calm    
02:20 58.0 °F 50.1 °F 1014.1 hPa  Calm    
02:25 58.0 °F 50.5 °F 1014.0 hPa  Calm    
02:30 57.9 °F 50.4 °F 1014.0 hPa  Calm    
02:35 57.8 °F 50.3 °F 1014.0 hPa  Calm    
02:40 57.7 °F 50.2 °F 1013.9 hPa  E 2 mph   
02:45 57.6 °F 50.1 °F 1013.9 hPa  Calm    
02:50 57.4 °F 49.9 °F 1013.7 hPa  Calm    
02:55 57.3 °F 49.8 °F 1013.5 hPa  Calm    
03:00 57.1 °F 49.6 °F 1013.6 hPa  Calm    
03:05 57.1 °F 49.6 °F 1013.6 hPa  Calm    
03:10 57.1 °F 49.6 °F 1013.5 hPa  Calm    
03:15 57.1 °F 49.6 °F 1013.4 hPa  Calm    
03:20 57.1 °F 49.6 °F 1013.3 hPa  Calm    
03:25 57.0 °F 49.5 °F 1013.3 hPa  Calm    
03:30 57.0 °F 49.5 °F 1013.2 hPa  Calm    
03:35 56.9 °F 49.4 °F 1013.2 hPa  Calm    
03:40 56.9 °F 49.4 °F 1013.2 hPa  Calm    
03:45 56.8 °F 49.3 °F 1013.1 hPa  Calm    
03:50 56.8 °F 49.0 °F 1013.1 hPa  Calm    
03:55 56.8 °F 49.0 °F 1013.0 hPa  Calm    
04:00 56.8 °F 49.0 °F 1013.0 hPa  E 1 mph   
04:05 56.8 °F 49.0 °F 1012.9 hPa  ENE 1 mph   
04:10 56.8 °F 49.0 °F 1013.0 hPa  Calm    
04:15 56.8 °F 49.0 °F 1012.9 hPa  Calm    
04:20 56.8 °F 48.6 °F 1012.9 hPa  Calm    
04:25 56.8 °F 48.6 °F 1012.9 hPa  Calm    
04:30 56.9 °F 48.7 °F 1012.8 hPa  ENE 2 mph   
04:35 56.9 °F 48.7 °F 1012.8 hPa  Calm    
04:40 56.9 °F 48.7 °F 1012.8 hPa  Calm    
04:45 56.9 °F 48.7 °F 1012.8 hPa  Calm    
04:50 56.9 °F 48.7 °F 1012.8 hPa  Calm    
04:55 56.9 °F 48.7 °F 1012.8 hPa  Calm    
05:00 57.0 °F 48.8 °F 1012.8 hPa  Calm    
05:05 57.0 °F 48.8 °F 1012.8 hPa  Calm    
05:10 57.0 °F 48.8 °F 1012.7 hPa  Calm    
05:15 57.0 °F 49.2 °F 1012.7 hPa  Calm    
05:20 57.1 °F 49.3 °F 1012.7 hPa  Calm    
05:25 57.1 °F 49.6 °F 1012.7 hPa  Calm    
05:30 57.1 °F 49.6 °F 1012.7 hPa  Calm    
05:35 57.1 °F 49.6 °F 1012.6 hPa  WSW 1 mph   
05:40 57.0 °F 49.5 °F 1012.6 hPa  WNW 1 mph   
05:45 57.1 °F 50.0 °F 1012.7 hPa  Calm    
05:50 57.1 °F 50.0 °F 1012.8 hPa  Calm    
05:55 57.1 °F 50.0 °F 1012.7 hPa  Calm    
06:00 57.1 °F 50.3 °F 1012.9 hPa  Calm    
06:05 57.0 °F 50.2 °F 1012.9 hPa  E 3 mph   
06:10 56.9 °F 50.1 °F 1012.9 hPa  E 2 mph   
06:15 56.8 °F 50.4 °F 1013.0 hPa  E 6 mph   
06:20 56.7 °F 50.3 °F 1012.9 hPa  ENE 3 mph   
06:25 56.5 °F 50.1 °F 1013.0 hPa  ENE 3 mph   
06:30 56.4 °F 50.0 °F 1013.0 hPa  E 2 mph   
06:35 56.3 °F 49.9 °F 1013.0 hPa  E 2 mph   
06:40 56.2 °F 49.8 °F 1013.0 hPa  ESE 1 mph   
06:45 56.2 °F 49.8 °F 1013.0 hPa  E 2 mph   
06:50 56.2 °F 49.8 °F 1013.0 hPa  ESE 1 mph   
06:55 56.1 °F 49.7 °F 1013.1 hPa  Calm    
07:00 56.1 °F 49.7 °F 1013.1 hPa  E 3 mph   
07:05 56.1 °F 49.7 °F 1013.1 hPa 3 W/m²  ESE 4 mph   
07:10 56.0 °F 49.9 °F 1013.1 hPa 7 W/m²  ENE 5 mph   
07:15 56.0 °F 49.9 °F 1013.1 hPa 8 W/m²  ENE 4 mph   
07:20 56.0 °F 49.9 °F 1013.0 hPa 9 W/m²  ENE 4 mph   
07:25 56.0 °F 49.9 °F 1013.0 hPa 11 W/m²  E 5 mph   
07:30 56.0 °F 49.9 °F 1012.9 hPa 17 W/m²  E 3 mph   
07:35 56.0 °F 49.9 °F 1012.9 hPa 25 W/m²  E 2 mph   
07:40 56.1 °F 50.0 °F 1012.9 hPa 33 W/m²  E 3 mph   
07:45 56.3 °F 50.2 °F 1012.8 hPa 41 W/m²  E 2 mph   
07:50 56.4 °F 50.3 °F 1012.9 hPa 45 W/m²  Calm    
07:55 56.5 °F 50.4 °F 1012.9 hPa 48 W/m²  E 2 mph   
08:00 56.6 °F 50.5 °F 1012.8 hPa 57 W/m²  ENE 4 mph   
08:05 56.8 °F 50.4 °F 1012.8 hPa 70 W/m²  E 1 mph   
08:10 57.0 °F 50.9 °F 1012.8 hPa 85 W/m²  E 3 mph   
08:15 57.2 °F 51.1 °F 1012.9 hPa 100 W/m²  E 1 mph   
08:20 57.5 °F 51.4 °F 1012.8 hPa 110 W/m²  E 1 mph   
08:25 57.7 °F 51.6 °F 1012.8 hPa 120 W/m²  E 2 mph   
08:30 57.9 °F 51.8 °F 1012.8 hPa 119 W/m²  E 1 mph   
08:35 58.1 °F 52.0 °F 1012.8 hPa 158 W/m²  Calm    
08:40 58.4 °F 52.3 °F 1012.8 hPa 188 W/m²  Calm    
08:45 58.8 °F 52.6 °F 1012.9 hPa 140 W/m²  SSE 1 mph   
08:50 59.0 °F 52.5 °F 1012.9 hPa 144 W/m²  S 1 mph   
08:55 59.1 °F 52.2 °F 1013.0 hPa 151 W/m²  Calm    
09:00 59.5 °F 52.3 °F 1013.0 hPa 163 W/m²  Calm    
09:05 59.7 °F 52.1 °F 1013.0 hPa 173 W/m²  Calm    
09:10 60.0 °F 52.4 °F 1013.0 hPa 187 W/m²  Calm    
09:15 60.3 °F 52.3 °F 1013.0 hPa 193 W/m²  Calm    
09:20 60.7 °F 52.4 °F 1013.1 hPa 175 W/m²  Calm    
09:25 60.9 °F 52.2 °F 1013.0 hPa 172 W/m²  Calm    
09:30 61.1 °F 52.0 °F 1013.0 hPa 166 W/m²  Calm    
09:35 61.2 °F 51.7 °F 1013.1 hPa 163 W/m²  Calm    
09:40 61.4 °F 51.5 °F 1013.0 hPa 164 W/m²  Calm    
09:45 61.6 °F 50.9 °F 1013.0 hPa 178 W/m²  Calm    
09:50 61.7 °F 50.6 °F 1013.0 hPa 185 W/m²  Calm    
09:55 61.9 °F 50.4 °F 1013.0 hPa 195 W/m²  Calm    
10:00 62.1 °F 50.2 °F 1013.0 hPa 192 W/m²  Calm    
10:05 62.3 °F 50.0 °F 1013.0 hPa 190 W/m²  Calm    
10:10 62.5 °F 49.7 °F 1013.0 hPa 200 W/m²  Calm    
10:15 62.7 °F 49.9 °F 1013.0 hPa 205 W/m²  Calm    
10:20 62.9 °F 50.1 °F 1013.0 hPa 194 W/m²  Calm    
10:25 63.1 °F 50.3 °F 1013.0 hPa 185 W/m²  SE 2 mph   
10:30 63.2 °F 50.4 °F 1012.9 hPa 180 W/m²  SSE 3 mph   
10:35 63.4 °F 50.6 °F 1013.0 hPa 187 W/m²  WSW 2 mph   
10:40 63.6 °F 50.8 °F 1012.9 hPa 201 W/m²  WNW 3 mph   
10:45 63.7 °F 50.9 °F 1012.9 hPa 217 W/m²  WSW 3 mph   
10:50 63.8 °F 51.0 °F 1012.8 hPa 226 W/m²  W 2 mph   
10:55 63.9 °F 50.6 °F 1012.8 hPa 211 W/m²  SSE 2 mph   
11:00 64.0 °F 50.7 °F 1012.8 hPa 189 W/m²  WSW 2 mph   
11:05 64.1 °F 50.8 °F 1012.7 hPa 171 W/m²  WSW 3 mph   
11:10 64.1 °F 50.8 °F 1012.7 hPa 163 W/m²  Calm    
11:15 64.1 °F 50.8 °F 1012.6 hPa 161 W/m²  Calm    
11:20 64.2 °F 50.9 °F 1012.6 hPa 163 W/m²  Calm    
11:25 64.2 °F 50.5 °F 1012.5 hPa 169 W/m²  Calm    
11:30 64.2 °F 50.5 °F 1012.4 hPa 181 W/m²  Calm    
11:35 64.3 °F 50.6 °F 1012.4 hPa 183 W/m²  Calm    
11:40 64.4 °F 50.7 °F 1012.3 hPa 187 W/m²  Calm    
11:45 64.5 °F 50.3 °F 1012.2 hPa 189 W/m²  Calm    
11:50 64.5 °F 50.3 °F 1012.1 hPa 196 W/m²  Calm    
11:55 64.7 °F 50.5 °F 1012.0 hPa 213 W/m²  Calm    
12:00 64.7 °F 50.5 °F 1012.0 hPa 225 W/m²  Calm    
12:05 64.8 °F 50.1 °F 1011.9 hPa 208 W/m²  Calm    
12:10 64.9 °F 50.2 °F 1011.8 hPa 189 W/m²  Calm    
12:15 65.0 °F 49.4 °F 1011.7 hPa 187 W/m²  Calm    
12:20 65.0 °F 49.4 °F 1011.6 hPa 180 W/m²  Calm    
12:25 65.1 °F 49.5 °F 1011.5 hPa 176 W/m²  Calm    
12:30 65.1 °F 49.0 °F 1011.5 hPa 182 W/m²  Calm    
12:35 65.1 °F 49.0 °F 1011.4 hPa 0.5 204 W/m²  Calm    
12:40 65.1 °F 49.0 °F 1011.3 hPa 0.6 239 W/m²  Calm    
12:45 65.3 °F 49.2 °F 1011.1 hPa 0.9 276 W/m²  Calm    
12:50 65.5 °F 49.4 °F 1011.0 hPa 0.9 311 W/m²  Calm    
12:55 65.8 °F 49.7 °F 1011.0 hPa 1.0 365 W/m²  Calm    
13:00 66.1 °F 49.0 °F 1010.8 hPa 1.2 403 W/m²  Calm    
13:05 65.9 °F 49.3 °F 1010.7 hPa 1.1 399 W/m²  Calm    
13:10 65.8 °F 49.2 °F 1010.7 hPa 0.9 426 W/m²  ESE 4 mph   
13:15 66.0 °F 48.9 °F 1010.6 hPa 269 W/m²  ESE 4 mph   
13:20 65.8 °F 49.2 °F 1010.5 hPa 0.6 265 W/m²  Calm    
13:25 65.9 °F 49.3 °F 1010.5 hPa 0.5 296 W/m²  ESE 2 mph   
13:30 66.1 °F 49.5 °F 1010.4 hPa 272 W/m²  ESE 3 mph   
13:35 66.1 °F 49.0 °F 1010.4 hPa 255 W/m²  Calm    
13:40 66.4 °F 49.7 °F 1010.3 hPa 0.5 269 W/m²  Calm    
13:45 66.4 °F 50.2 °F 1010.3 hPa 291 W/m²  ESE 4 mph   
13:50 66.5 °F 49.8 °F 1010.3 hPa 248 W/m²  ESE 3 mph   
13:55 66.3 °F 49.6 °F 1010.3 hPa 239 W/m²  Calm    
14:00 66.4 °F 49.7 °F 1010.2 hPa 227 W/m²  Calm    
14:05 66.6 °F 49.4 °F 1010.1 hPa 249 W/m²  Calm    
14:10 66.8 °F 49.6 °F 1010.1 hPa 269 W/m²  ESE 1 mph   
14:15 66.6 °F 49.4 °F 1010.1 hPa 267 W/m²  Calm    
14:20 66.7 °F 50.0 °F 1010.0 hPa 245 W/m²  Calm    
14:25 66.9 °F 50.7 °F 1009.9 hPa 279 W/m²  ESE 1 mph   
14:30 66.8 °F 50.1 °F 1009.9 hPa 208 W/m²  Calm    
14:35 67.0 °F 49.8 °F 1010.0 hPa 213 W/m²  Calm    
14:40 67.6 °F 50.8 °F 1010.0 hPa 331 W/m²  ESE 1 mph   
14:45 67.5 °F 50.8 °F 1010.0 hPa 176 W/m²  S 1 mph   
14:50 67.4 °F 50.7 °F 1010.0 hPa 119 W/m²  Calm    
14:55 67.3 °F 50.6 °F 1010.0 hPa 102 W/m²  S 4 mph   
15:00 67.4 °F 50.7 °F 1010.0 hPa 79 W/m²  W 6 mph   
15:05 67.3 °F 50.1 °F 1010.1 hPa 61 W/m²  SW 8 mph   
15:10 67.2 °F 50.0 °F 1010.1 hPa 50 W/m²  W 7 mph   
15:15 67.1 °F 50.4 °F 1010.1 hPa 43 W/m²  Calm    
15:20 66.8 °F 50.1 °F 1010.1 hPa 35 W/m²  WNW 7 mph   
15:25 66.6 °F 49.9 °F 1010.1 hPa 29 W/m²  W 7 mph   
15:30 66.4 °F 50.2 °F 1010.1 hPa 28 W/m²  W 5 mph   
15:35 66.2 °F 50.0 °F 1010.1 hPa 28 W/m²  WSW 4 mph   
15:40 66.0 °F 50.3 °F 1010.1 hPa 26 W/m²  W 1 mph   
15:45 65.9 °F 50.2 °F 1010.1 hPa 28 W/m²  W 1 mph   
15:50 65.8 °F 50.1 °F 1010.0 hPa 24 W/m²  Calm    
15:55 65.7 °F 50.0 °F 1010.1 hPa 25 W/m²  Calm    
16:00 65.5 °F 50.3 °F 1010.0 hPa 20 W/m²  Calm    
16:05 65.4 °F 49.8 °F 1010.1 hPa 20 W/m²  W 4 mph   
16:10 65.3 °F 49.7 °F 1010.0 hPa 24 W/m²  W 1 mph   
16:15 65.2 °F 49.6 °F 1010.0 hPa 26 W/m²  Calm    
16:20 65.1 °F 49.5 °F 1010.0 hPa 28 W/m²  Calm    
16:25 65.2 °F 50.0 °F 1010.1 hPa 26 W/m²  Calm    
16:30 65.2 °F 50.5 °F 1010.2 hPa 21 W/m²  Calm    
16:35 65.0 °F 50.3 °F 1010.2 hPa 17 W/m²  W 4 mph   
16:40 64.8 °F 50.6 °F 1010.2 hPa 13 W/m²  W 7 mph   
16:45 64.5 °F 50.3 °F 1010.3 hPa 12 W/m²  W 5 mph   
16:50 64.3 °F 50.6 °F 1010.3 hPa 12 W/m²  W 3 mph   
16:55 64.1 °F 50.4 °F 1010.3 hPa 14 W/m²  Calm    
17:00 64.0 °F 50.7 °F 1010.1 hPa 16 W/m²  W 3 mph   
17:05 63.8 °F 51.0 °F 1010.1 hPa 12 W/m²  W 4 mph   
17:10 63.7 °F 51.3 °F 1010.1 hPa 9 W/m²  Calm    
17:15 63.6 °F 51.6 °F 1010.1 hPa 7 W/m²  Calm    
17:20 63.3 °F 51.3 °F 1010.1 hPa 3 W/m²  Calm    
17:25 63.1 °F 51.1 °F 1010.1 hPa  Calm    
17:30 62.9 °F 50.9 °F 1010.0 hPa  Calm    
17:35 62.7 °F 51.2 °F 1010.1 hPa  Calm    
17:40 62.4 °F 50.9 °F 1010.1 hPa  Calm    
17:45 62.0 °F 50.5 °F 1010.2 hPa  Calm    
17:50 61.8 °F 50.7 °F 1010.3 hPa  Calm    
17:55 61.6 °F 50.5 °F 1010.3 hPa  Calm    
18:00 61.4 °F 50.7 °F 1010.3 hPa  Calm    
18:05 61.1 °F 50.5 °F 1010.4 hPa  Calm    
18:10 60.9 °F 50.3 °F 1010.5 hPa  Calm    
18:15 60.8 °F 50.2 °F 1010.5 hPa  Calm    
18:20 60.6 °F 50.4 °F 1010.5 hPa  Calm    
18:25 60.4 °F 50.2 °F 1010.5 hPa  Calm    
18:30 60.1 °F 49.9 °F 1010.6 hPa  Calm    
18:35 60.0 °F 49.8 °F 1010.6 hPa  Calm    
18:40 59.8 °F 49.6 °F 1010.6 hPa  Calm    
18:45 59.6 °F 49.4 °F 1010.6 hPa  Calm    
18:50 59.5 °F 49.3 °F 1010.6 hPa  Calm    
18:55 59.4 °F 49.2 °F 1010.7 hPa  Calm    
19:00 59.2 °F 49.4 °F 1010.7 hPa  Calm    
19:05 59.0 °F 49.2 °F 1010.8 hPa  Calm    
19:10 59.0 °F 49.2 °F 1010.7 hPa  Calm    
19:15 59.0 °F 49.2 °F 1010.8 hPa  Calm    
19:20 59.0 °F 49.2 °F 1010.8 hPa  Calm    
19:25 59.0 °F 49.2 °F 1010.8 hPa  Calm    
19:30 58.9 °F 49.1 °F 1010.9 hPa  Calm    
19:35 59.0 °F 49.2 °F 1011.0 hPa  W 4 mph   
19:40 59.0 °F 49.2 °F 1011.0 hPa  Calm    
19:45 59.0 °F 49.2 °F 1011.0 hPa  Calm    
19:50 59.0 °F 49.2 °F 1011.0 hPa  Calm    
19:55 59.0 °F 49.2 °F 1010.9 hPa  Calm    
20:00 59.0 °F 49.2 °F 1010.9 hPa  Calm    
20:05 58.9 °F 49.1 °F 1010.9 hPa  Calm    
20:10 58.8 °F 49.0 °F 1010.9 hPa  Calm    
20:15 58.7 °F 48.9 °F 1010.9 hPa  Calm    
20:20 58.7 °F 48.9 °F 1010.9 hPa  Calm    
20:25 58.5 °F 49.1 °F 1010.9 hPa  Calm    
20:30 58.4 °F 49.0 °F 1010.9 hPa  Calm    
20:35 58.3 °F 48.9 °F 1010.9 hPa  Calm    
20:40 58.2 °F 48.8 °F 1011.0 hPa  Calm    
20:45 58.1 °F 48.7 °F 1011.0 hPa  Calm    
20:50 57.9 °F 48.9 °F 1011.0 hPa  Calm    
20:55 57.8 °F 48.8 °F 1011.0 hPa  Calm    
21:00 57.6 °F 48.6 °F 1011.1 hPa  Calm    
21:05 57.5 °F 48.5 °F 1011.1 hPa  Calm    
21:10 57.4 °F 48.8 °F 1011.0 hPa  Calm    
21:15 57.4 °F 48.8 °F 1011.1 hPa  Calm    
21:20 57.3 °F 48.7 °F 1011.0 hPa  Calm    
21:25 57.3 °F 48.7 °F 1011.1 hPa  Calm